Theta_e
342 343 347 346 350 351 353 352 346 345 346 345 347 347 348 346 349 357 346 345 345 344 340 338 335 334 331 329 329 328 328 328 328 328 329 329 328 327 325 324 324 324 325 326 327 327 329 327 328
348 344 344 345 350 356 353 346 345 346 345 344 346 346 346 349 347 346 345 345 345 343 343 341 335 332 329 326 323 321 321 321 321 320 320 320 320 319 320 322 323 324 325 326 326 325 324 323 324
346 343 345 346 351 354 350 345 343 340 341 342 343 344 346 347 346 344 346 345 344 342 342 338 334 330 324 322 322 321 320 319 317 316 316 315 315 315 315 315 316 316 316 316 316 316 317 321 324
345 344 344 347 350 343 344 343 338 339 339 341 342 346 346 345 344 345 345 345 345 345 344 335 333 326 324 323 321 318 316 316 316 315 315 314 314 313 313 313 313 313 313 313 313 313 313 314 314
343 343 347 347 344 342 341 339 340 339 337 340 341 345 346 345 345 345 346 343 343 342 342 335 329 325 324 321 318 316 317 316 315 314 314 314 315 315 315 315 316 316 315 315 315 314 314 313 312
343 341 342 343 342 341 341 341 340 339 338 338 341 344 348 346 345 345 344 343 342 342 339 334 326 324 321 318 317 317 319 320 318 317 315 314 313 313 312 312 312 312 312 312 313 313 313 313 313
343 341 339 340 340 341 340 340 341 339 339 338 339 343 347 345 345 345 344 343 342 341 338 334 331 321 319 317 317 317 320 319 318 317 316 315 316 314 314 315 318 314 312 312 312 312 313 313 313
340 338 340 338 340 340 338 339 340 340 341 338 339 340 347 345 344 343 342 342 341 339 337 336 334 331 330 325 317 317 320 320 320 320 317 320 324 323 322 321 319 314 312 312 312 312 313 312 312
339 342 340 338 339 340 339 340 338 339 340 338 340 341 343 345 344 342 341 341 340 336 335 334 333 333 332 331 328 325 326 328 327 326 324 325 325 325 323 323 319 315 312 311 312 312 312 312 319
341 342 341 340 339 340 338 340 341 341 340 341 343 345 345 344 343 342 340 339 338 335 334 333 331 331 331 328 327 328 330 332 329 327 327 327 325 325 323 323 322 321 320 321 321 320 319 321 322
340 343 339 339 339 339 340 339 340 341 343 341 342 346 345 344 343 342 340 339 337 335 334 333 329 329 330 327 328 329 329 330 329 328 327 328 327 327 326 324 323 323 322 323 322 322 322 321 321
342 338 339 339 340 340 340 340 341 340 341 344 341 345 346 344 343 342 340 338 335 335 335 333 330 331 328 328 328 328 328 328 328 327 327 328 328 327 327 325 324 323 322 322 322 322 322 322 322
341 339 339 339 339 340 340 339 340 340 341 345 342 345 346 344 342 342 340 337 335 335 336 334 330 330 328 327 329 329 329 329 328 327 327 327 328 328 327 326 325 324 323 323 322 322 321 321 321
338 337 338 338 339 340 340 340 340 339 341 345 343 344 345 343 342 341 339 336 334 334 335 334 332 330 329 327 330 330 330 329 329 328 328 328 328 328 328 327 325 324 323 323 323 322 322 321 321
336 338 337 338 339 341 341 342 342 341 342 345 344 344 344 343 341 341 339 337 335 335 336 336 332 330 329 326 328 330 330 329 329 329 329 329 329 328 329 328 325 324 324 324 323 323 322 321 321
337 338 342 339 337 340 343 341 343 342 343 344 343 344 343 343 341 340 339 338 337 336 336 335 331 330 330 330 331 331 330 329 328 327 329 328 327 328 328 326 324 325 324 324 323 322 322 322 322
338 339 339 337 337 338 344 340 346 345 344 344 342 343 343 342 341 340 339 338 337 337 336 334 333 331 331 332 333 333 332 331 329 328 327 327 328 327 326 325 324 325 324 324 323 322 322 322 322
333 332 332 334 338 338 337 340 339 346 346 344 342 342 343 342 341 339 339 338 337 337 336 335 333 333 332 332 332 332 330 330 328 326 326 327 324 325 325 324 324 323 325 324 325 323 322 323 323
331 331 331 332 334 336 336 336 337 338 347 346 343 342 342 342 340 340 339 337 336 336 335 335 334 334 333 333 331 330 330 329 327 323 324 325 323 322 321 322 323 323 323 324 324 325 323 323 322
330 331 331 332 333 337 335 336 337 337 339 341 342 343 343 342 339 338 337 337 336 335 334 335 335 335 332 334 333 333 331 325 322 322 321 321 322 319 318 320 319 319 319 320 320 321 322 323 323
331 332 331 331 331 335 336 342 339 335 342 341 342 343 343 342 340 338 337 335 335 335 334 335 336 337 336 335 335 329 328 326 324 321 319 321 320 320 319 319 318 318 317 317 318 319 319 320 322
331 331 330 330 332 334 338 340 340 339 341 340 341 342 343 343 341 339 337 337 336 335 335 336 337 337 336 335 332 329 323 318 318 318 319 320 320 320 319 318 317 318 316 317 317 318 319 319 320
331 331 330 331 332 338 337 339 339 336 341 342 338 336 339 341 342 341 338 338 339 337 333 328 336 335 332 330 321 320 320 319 317 318 319 320 320 320 319 319 316 316 316 316 317 317 316 316 317
330 330 331 332 337 340 339 339 339 339 337 334 332 333 335 338 342 341 339 338 340 337 335 336 325 331 328 326 323 322 319 322 322 321 320 319 319 318 317 319 318 316 316 317 316 317 317 318 316
330 335 339 341 337 337 337 337 340 335 333 332 332 332 336 339 341 341 340 342 340 339 337 333 334 330 324 322 322 324 324 325 325 323 322 319 319 318 317 316 315 317 315 316 316 316 316 316 316
332 338 340 338 341 336 331 338 340 333 332 332 332 332 334 336 336 337 338 336 335 334 330 328 328 323 321 322 323 325 325 323 322 321 322 322 319 317 317 315 316 315 315 315 315 315 317 316 315
331 338 337 335 333 335 336 336 333 333 332 331 332 333 333 334 334 335 335 333 331 328 327 326 324 320 317 319 325 324 323 323 322 321 320 319 317 317 316 315 314 314 315 315 315 315 317 316 314
332 334 335 333 335 337 337 335 336 333 333 332 332 333 333 333 333 333 333 331 330 327 323 318 317 319 322 322 321 321 321 320 319 317 316 315 314 314 314 313 315 314 314 313 314 316 317 318 315
334 335 335 338 336 338 339 336 333 333 333 333 331 331 332 333 332 331 329 328 325 321 320 320 320 320 320 320 320 320 319 317 315 314 314 313 312 312 312 311 313 314 313 313 314 315 315 317 317
333 334 335 335 335 337 337 336 332 332 331 330 329 331 332 331 331 328 325 322 322 320 319 318 320 320 320 319 317 315 314 314 313 312 311 311 311 311 311 311 310 311 311 312 314 315 315 319 318
Wind_Speed
3 2 2 7 5 2 1 5 7 7 9 7 8 9 11 13 7 4 15 11 12 15 13 11 8 6 5 5 5 4 4 3 3 2 2 1 1 1 1 2 3 4 4 5 6 7 7 7 7
2 5 8 14 3 4 4 9 10 13 12 7 6 5 4 9 9 13 15 16 16 16 15 10 7 5 5 4 4 3 3 3 3 2 2 2 2 3 4 5 6 7 7 8 8 8 9 9 9
4 7 6 3 7 2 10 7 14 10 5 2 6 5 6 5 10 11 16 16 14 13 13 11 7 5 5 4 3 4 3 3 3 3 4 5 5 6 6 6 7 8 10 11 11 11 11 12 11
8 12 5 2 13 14 13 12 9 11 9 0 5 11 10 8 9 9 17 16 14 13 13 9 7 6 5 4 4 4 5 5 5 4 4 4 5 6 7 7 8 9 10 11 11 11 11 12 13
8 12 9 5 13 9 10 8 7 8 5 6 2 10 11 6 10 16 16 15 13 12 10 9 8 6 5 4 4 5 5 5 5 5 5 5 4 4 5 6 8 9 10 11 11 12 11 11 12
15 9 6 8 9 7 8 6 5 8 4 5 7 13 7 8 13 16 16 15 13 11 13 8 8 6 5 4 5 5 6 6 6 7 7 6 6 6 6 7 8 9 9 10 11 11 11 12 12
15 10 11 8 8 10 6 3 4 7 6 7 3 4 7 12 13 15 14 12 12 12 12 10 9 7 6 5 5 4 5 7 8 9 8 8 8 10 9 7 7 10 10 10 10 10 10 10 11
16 6 7 9 7 10 10 4 5 5 10 5 3 2 8 18 16 14 13 14 11 12 11 9 8 6 5 2 5 4 3 5 7 9 10 9 11 15 13 10 14 12 9 9 10 10 10 10 10
10 7 3 12 5 8 10 9 4 2 6 1 3 5 5 20 18 15 14 13 12 12 11 10 8 8 8 4 3 1 5 7 10 12 10 7 6 6 7 13 15 12 10 8 8 9 10 8 8
17 0 5 11 9 4 12 7 10 5 6 6 4 3 12 20 19 17 15 14 13 13 12 11 10 8 7 5 3 2 3 2 2 2 3 4 8 5 10 8 16 14 14 10 13 11 11 10 9
2 2 4 10 4 3 6 8 4 6 4 7 11 12 14 17 17 17 15 13 14 15 13 11 10 8 6 5 2 1 2 3 5 4 2 5 5 5 7 9 10 10 13 8 12 12 12 9 10
3 2 3 8 1 6 8 7 8 8 4 3 3 11 16 18 18 17 15 13 15 16 14 12 8 8 8 4 2 3 2 3 5 3 6 5 6 7 7 8 9 9 8 11 9 10 11 12 10
8 5 0 3 4 6 8 8 9 8 6 6 6 10 16 17 18 17 15 14 15 15 14 12 11 8 7 7 5 3 5 6 7 8 7 8 9 9 9 10 11 11 10 11 11 12 12 11 11
4 2 5 3 6 4 8 10 10 8 9 9 11 13 15 17 18 17 17 16 15 15 14 12 12 11 10 7 7 6 7 7 7 9 11 8 10 11 12 11 12 13 13 13 12 13 14 12 11
2 9 8 10 7 5 6 15 16 9 10 12 13 13 15 17 18 19 19 18 17 16 14 14 13 12 10 9 9 6 8 9 10 11 11 13 15 14 13 14 16 15 15 14 15 13 14 13 13
12 8 13 9 5 4 5 9 8 9 10 11 14 14 16 17 19 19 19 18 17 16 16 15 12 13 11 10 9 9 10 9 11 13 12 15 17 17 14 16 15 16 17 16 17 17 15 15 15
12 9 8 9 8 5 9 13 8 1 6 11 14 15 16 17 19 19 19 18 18 17 16 15 14 13 12 10 10 10 10 10 12 14 15 15 12 15 16 17 17 19 20 17 20 20 18 18 18
8 12 7 8 5 8 12 14 15 12 10 11 14 15 17 19 20 19 19 19 19 18 18 16 14 13 13 12 11 9 9 12 12 14 14 15 16 16 17 18 19 20 18 20 19 23 22 20 21
9 10 13 10 4 4 13 15 12 7 12 10 13 15 16 18 18 19 19 19 19 19 18 16 15 15 12 10 8 10 12 12 11 12 10 10 13 15 16 16 19 19 19 19 21 22 25 24 22
10 17 12 13 7 8 15 18 14 15 9 13 14 15 15 16 18 18 18 19 20 19 15 15 14 14 14 11 9 9 8 10 13 14 12 10 7 13 13 13 15 17 19 21 24 25 27 25 22
11 15 13 17 14 12 18 14 21 8 8 7 8 11 13 14 18 20 20 19 19 21 16 20 15 18 15 11 9 10 11 11 10 6 7 5 10 13 13 14 14 16 19 21 23 24 27 27 26
17 8 16 17 16 14 12 14 20 18 13 23 12 5 9 13 14 19 20 18 21 18 14 16 21 20 12 10 8 7 11 10 10 14 13 10 15 15 14 14 19 19 19 23 22 23 23 25 27
17 17 13 17 18 24 12 4 5 25 8 11 7 10 6 8 11 14 17 21 25 20 21 27 19 4 4 6 3 6 9 11 12 13 15 15 18 15 16 15 21 25 21 26 25 25 25 23 24
19 15 18 22 4 5 12 2 6 10 12 13 14 13 10 6 4 7 15 20 11 9 13 12 8 6 8 3 6 11 11 12 14 16 17 19 17 20 23 14 15 27 26 25 24 22 24 22 22
22 13 10 19 11 6 4 11 8 14 12 12 13 13 7 5 4 10 11 6 5 6 9 14 9 8 5 8 7 11 14 15 17 18 20 22 21 24 25 28 32 25 26 25 23 24 24 23 23
3 13 10 10 7 18 12 1 1 8 11 10 8 9 3 2 3 1 3 4 4 10 3 3 6 4 11 5 8 12 14 16 17 19 16 18 22 24 26 32 27 28 28 27 26 26 22 24 22
13 4 24 10 16 14 5 7 17 3 7 13 12 6 10 4 3 4 5 5 13 8 5 4 6 8 21 6 11 12 14 15 17 17 19 20 23 25 27 31 30 25 23 24 25 25 23 24 23
11 16 12 8 10 15 7 8 5 10 10 12 12 7 7 8 3 2 6 11 11 8 5 5 9 21 10 10 12 12 12 13 16 19 22 25 24 25 27 26 24 24 21 24 25 24 22 23 24
3 11 5 9 4 7 9 1 7 9 11 13 15 13 6 3 7 10 10 6 5 3 6 14 7 9 9 10 12 13 15 17 19 21 22 25 25 24 24 23 23 23 22 24 25 26 25 22 24
12 10 10 7 9 7 13 3 8 9 12 13 14 13 11 7 8 6 4 3 6 11 6 7 7 8 10 12 15 17 18 18 20 22 23 23 23 22 22 23 24 24 21 24 25 26 23 21 20
Wind_Direction
27 79 160 243 249 131 87 115 77 121 108 51 57 41 73 39 11 88 141 140 149 151 150 141 130 121 115 111 107 97 91 80 67 56 46 44 30 340 281 269 272 269 267 278 283 288 290 292 283
179 226 222 260 139 227 159 39 88 56 68 89 115 156 136 72 62 128 141 147 158 156 151 153 134 124 113 100 88 75 53 34 15 4 352 336 318 307 300 296 295 293 294 291 290 289 290 288 281
171 238 232 278 46 224 98 169 93 88 100 201 142 353 32 62 114 129 150 145 143 144 149 153 141 133 126 103 74 51 28 5 348 335 321 311 307 306 305 303 300 302 304 304 301 298 293 286 281
251 220 304 20 176 83 87 79 123 136 110 219 93 94 86 98 130 141 145 147 141 140 139 152 146 145 127 97 64 50 39 32 20 9 352 332 319 307 302 305 310 312 313 314 310 307 303 297 290
237 260 159 195 74 69 83 105 60 97 76 103 248 101 102 118 130 143 147 150 150 156 147 158 159 150 120 90 83 81 71 61 46 33 25 15 1 339 326 317 311 308 309 306 304 305 304 302 296
260 231 176 100 93 105 109 110 128 70 61 84 99 113 124 153 155 159 160 160 166 156 156 169 159 146 125 106 93 79 67 49 38 33 31 25 13 1 349 335 327 322 315 309 307 306 305 301 301
251 286 78 134 123 130 132 35 42 85 146 84 115 54 125 165 164 162 161 168 167 165 167 162 157 154 138 112 87 73 54 46 40 34 29 20 17 9 13 358 348 326 311 308 308 307 309 306 305
297 92 197 133 150 102 88 190 67 293 89 100 326 96 157 174 166 163 171 173 173 179 181 174 175 156 149 82 67 74 56 40 32 31 27 32 24 7 3 12 335 325 310 293 294 300 303 308 316
264 347 235 117 64 125 147 150 120 124 149 181 79 25 109 160 165 173 178 183 186 189 182 180 179 177 162 190 284 23 14 13 13 9 6 37 18 338 345 299 334 339 335 322 321 316 323 336 352
259 55 156 32 72 64 138 279 135 223 156 177 157 97 145 162 171 180 188 191 194 190 186 186 180 181 176 172 220 142 278 313 325 299 298 27 293 306 340 323 339 348 350 349 347 344 354 353 335
61 226 58 118 53 326 298 168 191 224 186 272 188 168 170 174 182 189 196 200 197 193 187 194 185 173 186 204 167 244 278 257 285 284 315 298 324 295 331 324 327 327 326 351 322 318 325 290 294
297 88 4 64 66 280 271 297 164 227 278 92 164 169 180 185 191 196 201 204 193 194 193 193 201 188 181 215 199 238 294 290 302 246 287 295 321 297 306 312 306 312 309 308 312 305 294 300 293
250 125 283 111 278 267 281 251 286 248 222 183 204 187 190 194 197 200 203 201 198 197 199 198 201 196 213 200 226 250 265 287 267 289 274 282 296 290 301 295 303 297 300 303 299 300 298 297 293
5 348 289 252 275 268 281 256 222 241 234 207 208 203 201 201 201 200 199 198 198 198 200 200 207 207 203 205 225 256 280 286 296 280 272 272 289 287 287 294 296 291 287 287 286 291 291 294 290
269 256 257 201 229 263 282 257 229 226 194 216 217 216 209 205 203 202 201 199 200 203 208 207 203 211 224 240 252 261 270 281 284 281 284 282 277 289 278 290 290 281 274 275 288 288 290 291 288
235 206 297 133 170 178 246 306 65 182 184 234 222 224 216 209 206 204 202 204 204 209 210 208 209 219 233 227 233 254 265 275 283 291 287 289 296 288 299 296 291 282 274 278 274 274 279 282 281
334 249 229 172 171 207 218 295 81 137 224 242 240 226 222 218 210 206 206 207 206 207 206 208 208 212 225 235 242 257 267 284 294 283 289 300 290 299 291 294 291 284 270 270 269 266 268 275 278
293 329 317 314 116 217 254 249 270 194 219 249 256 236 224 222 214 211 209 208 207 206 207 210 209 215 220 231 250 266 268 271 279 300 294 281 295 297 297 295 294 291 275 272 267 267 263 272 275
323 311 293 299 156 265 280 273 272 225 205 245 252 248 233 229 219 210 211 209 208 209 209 210 214 212 221 233 251 256 267 278 294 300 313 303 298 296 296 297 290 291 287 280 271 273 273 271 265
292 279 318 282 268 270 268 270 279 279 259 227 231 235 237 227 222 211 210 211 210 209 215 221 226 223 222 225 240 256 274 290 289 281 283 295 289 308 303 299 297 295 293 292 289 286 273 268 264
249 309 308 311 298 252 265 320 266 306 182 213 216 237 230 232 224 209 211 217 217 215 206 227 220 225 217 213 230 257 275 283 281 268 302 258 316 300 300 298 298 300 299 292 287 283 283 274 267
280 282 290 295 286 274 192 286 345 312 34 4 181 213 245 240 229 214 211 214 218 220 223 227 231 218 202 222 229 260 289 296 288 291 282 294 297 278 285 287 295 293 300 291 288 287 278 278 267
286 294 296 288 283 350 353 17 236 252 132 189 85 10 266 251 214 217 203 230 207 202 230 256 249 199 252 199 256 285 280 292 296 293 296 296 292 289 295 277 295 300 310 295 282 279 281 277 265
288 289 273 267 81 259 212 48 281 18 39 29 14 24 0 336 155 206 218 237 249 209 261 211 222 207 171 196 272 276 263 280 288 285 288 293 289 301 300 288 293 295 301 295 287 286 284 286 268
254 30 346 289 245 278 80 271 27 36 38 32 21 4 32 12 138 191 200 213 228 209 224 165 184 158 250 249 248 263 276 280 284 284 280 289 290 295 293 295 297 294 297 292 284 284 282 281 277
243 157 216 334 330 269 304 320 103 4 54 38 36 2 29 59 112 179 205 181 188 140 62 92 131 3 302 314 292 298 289 286 288 292 288 284 286 291 287 294 295 296 291 286 287 281 286 281 280
283 144 231 296 301 321 16 360 53 341 11 17 20 45 348 232 110 139 131 185 133 116 125 52 45 332 305 318 292 286 287 288 294 295 298 300 293 293 292 291 292 288 284 285 289 291 283 282 281
263 337 295 280 289 286 335 17 28 23 9 7 359 49 94 291 104 150 103 96 106 71 54 356 313 319 312 285 291 292 296 301 297 300 303 300 299 297 295 294 287 283 284 285 286 285 285 280 280
243 233 117 233 344 327 304 143 54 11 20 7 355 16 43 77 59 93 83 47 50 359 325 314 348 304 305 306 304 306 307 307 305 305 302 301 301 300 297 294 292 288 289 290 287 281 283 273 272
332 347 345 320 299 199 259 119 87 28 22 21 7 30 17 20 60 80 88 99 340 312 322 333 338 319 315 314 312 312 311 309 308 307 306 304 302 301 299 293 289 287 288 286 285 286 281 273 268